EW0236 Weather Reports


Display with metric or nautical units.
time (UTC)temp
F
wind
direction
speed
MPH
gust
MPH
rain 1hr
in
rain 24hr
in
rain mn
in
humidity
%
barometer
mb
20200709233916 54 270 0.0 1.0 0.00 0.12 0.00 97 1012.9
20200709233018 54 293 0.0 2.0 0.00 0.12 0.00 97 1012.7
20200709232117 54 268 1.0 2.0 0.00 0.12 0.00 97 1012.8
20200709231216 54 227 0.0 3.0 0.00 0.12 0.00 97 1012.9
20200709230317 54 292 2.0 3.0 0.00 0.12 0.00 97 1012.9
20200709225416 54 278 0.0 2.0 0.00 0.12 0.12 97 1012.9
20200709224516 54 303 0.0 2.0 0.00 0.12 0.12 97 1013.0
20200709223616 54 315 0.0 2.0 0.00 0.12 0.12 97 1013.1
20200709222716 54 333 0.0 3.0 0.00 0.12 0.12 97 1012.9
20200709221816 54 296 0.0 2.0 0.00 0.12 0.12 97 1012.8
20200709220917 54 92 0.0 13.0 0.00 0.12 0.12 97 1012.8
20200709220017 54 278 0.0 2.0 0.00 0.13 0.12 97 1012.6
20200709215116 54 338 0.0 2.0 0.00 0.13 0.12 97 1012.5
20200709214216 54 360 0.0 1.0 0.00 0.13 0.12 97 1012.4
20200709213316 54 338 0.0 3.0 0.00 0.13 0.12 97 1012.3
20200709212416 54 345 0.0 2.0 0.00 0.14 0.12 97 1012.3
20200709211516 54 338 1.0 4.0 0.00 0.14 0.12 97 1012.3
20200709210616 54 330 0.0 4.0 0.00 0.14 0.12 97 1012.0
20200709205716 54 300 0.0 4.0 0.00 0.14 0.12 97 1012.0
20200709204816 54 354 2.0 2.0 0.00 0.15 0.12 97 1012.0
20200709203918 54 341 0.0 4.0 0.00 0.15 0.12 97 1011.9
20200709203016 54 352 0.0 4.0 0.00 0.17 0.12 97 1011.8
20200709202116 55 358 2.0 2.0 0.00 0.17 0.12 97 1011.7
20200709201216 55 360 0.0 2.0 0.00 0.17 0.12 97 1011.6
20200709200316 55 332 1.0 2.0 0.00 0.17 0.12 97 1011.6
20200709195417 55 318 0.0 4.0 0.00 0.17 0.12 97 1011.5
20200709194516 55 325 1.0 3.0 0.00 0.18 0.12 97 1011.5
20200709193619 55 340 0.0 2.0 0.00 0.19 0.12 97 1011.3
20200709192716 55 360 0.0 2.0 0.00 0.19 0.12 97 1011.4
20200709191816 55 45 0.0 3.0 0.00 0.19 0.12 97 1011.3
20200709190916 55 351 0.0 3.0 0.00 0.21 0.12 97 1011.2
20200709190017 56 353 1.0 4.0 0.00 0.21 0.12 97 1011.1
20200709185117 56 345 0.0 4.0 0.00 0.21 0.12 97 1011.1
20200709184216 56 342 4.0 4.0 0.00 0.22 0.12 97 1011.2
20200709183316 56 334 1.0 2.0 0.00 0.24 0.12 97 1011.1
20200709182416 56 330 0.0 3.0 0.00 0.26 0.12 97 1011.2
20200709181516 56 339 0.0 3.0 0.00 0.27 0.12 97 1011.1
20200709180616 56 283 0.0 2.0 0.01 0.28 0.12 96 1011.0
20200709175717 56 301 0.0 4.0 0.01 0.32 0.12 96 1010.9
20200709174819 56 313 1.0 3.0 0.01 0.33 0.12 96 1010.8
20200709173916 56 309 1.0 4.0 0.02 0.33 0.12 96 1011.0
20200709173019 56 285 2.0 4.0 0.02 0.33 0.12 96 1010.9
20200709172116 57 276 2.0 4.0 0.02 0.33 0.12 95 1010.8
20200709171216 57 310 2.0 4.0 0.02 0.34 0.12 95 1010.7
20200709170316 56 295 1.0 4.0 0.01 0.33 0.11 94 1010.7
20200709165418 56 180 0.0 4.0 0.01 0.33 0.11 94 1010.8
20200709164516 57 220 2.0 4.0 0.01 0.34 0.11 93 1010.9
20200709163616 57 291 1.0 4.0 0.00 0.34 0.09 93 1010.7
20200709162717 57 318 2.0 4.0 0.00 0.35 0.09 93 1010.7
20200709161818 57 139 0.0 4.0 0.00 0.35 0.09 93 1010.7
20200709160916 57 93 1.0 3.0 0.00 0.37 0.09 93 1010.5
20200709160021 57 191 0.0 4.0 0.00 0.38 0.09 92 1010.6
20200709155116 57 322 2.0 7.0 0.00 0.38 0.09 92 1010.5
20200709154216 58 240 3.0 5.0 0.00 0.39 0.09 91 1010.5
20200709153316 58 96 1.0 4.0 0.00 0.40 0.09 91 1010.3
20200709152417 58 304 1.0 5.0 0.00 0.40 0.09 92 1010.2
20200709151519 58 65 0.0 4.0 0.00 0.41 0.09 92 1010.1
20200709150620 58 113 2.0 4.0 0.00 0.41 0.09 93 1010.1
20200709145717 58 131 2.0 8.0 0.00 0.41 0.09 92 1010.1
20200709144817 58 102 2.0 8.0 0.00 0.41 0.09 93 1010.2
20200709143916 58 153 2.0 7.0 0.00 0.41 0.09 93 1010.2
20200709143019 58 129 1.0 4.0 0.00 0.41 0.09 93 1010.2
20200709142116 57 194 2.0 4.0 0.00 0.41 0.09 93 1010.2
20200709141218 57 46 1.0 5.0 0.00 0.41 0.09 93 1010.3
20200709140316 58 278 0.0 4.0 0.00 0.41 0.09 94 1010.3
20200709135416 57 145 1.0 6.0 0.00 0.41 0.09 93 1010.2
20200709134516 58 180 2.0 5.0 0.00 0.41 0.09 94 1010.3
20200709133616 58 182 0.0 4.0 0.00 0.41 0.09 94 1010.3
20200709132716 58 124 2.0 4.0 0.00 0.41 0.09 93 1010.1
20200709131819 57 86 1.0 8.0 0.00 0.41 0.09 93 1010.3
20200709130916 57 93 2.0 8.0 0.00 0.41 0.09 93 1010.1
20200709130016 57 104 2.0 7.0 0.00 0.41 0.09 92 1010.2
20200709125117 57 94 2.0 7.0 0.00 0.41 0.09 91 1010.2
20200709124217 58 68 1.0 5.0 0.00 0.41 0.09 91 1010.0
20200709123316 58 81 2.0 5.0 0.00 0.41 0.09 92 1010.0
20200709122419 58 125 3.0 7.0 0.00 0.41 0.09 92 1009.8
20200709121516 58 147 1.0 5.0 0.00 0.41 0.09 91 1009.7
20200709120616 58 92 2.0 8.0 0.00 0.41 0.09 91 1009.7
20200709115716 58 96 2.0 8.0 0.00 0.41 0.09 92 1009.6
20200709114816 59 107 2.0 6.0 0.00 0.41 0.09 92 1009.4
20200709113916 59 81 4.0 8.0 0.00 0.41 0.09 93 1009.2
20200709113017 58 113 4.0 8.0 0.00 0.41 0.09 93 1009.4
20200709112116 58 78 2.0 10.0 0.00 0.41 0.09 94 1009.2
20200709111216 58 335 1.0 8.0 0.00 0.41 0.09 95 1009.3
20200709110318 58 93 2.0 6.0 0.00 0.41 0.09 96 1009.3
20200709105418 58 122 4.0 6.0 0.00 0.41 0.09 97 1009.2
20200709104517 58 142 3.0 5.0 0.00 0.41 0.09 98 1009.2
20200709103616 58 70 2.0 6.0 0.00 0.41 0.09 99 1009.0
20200709102716 57 36 2.0 6.0 0.00 0.41 0.09 99 1008.9
20200709101819 57 114 0.0 7.0 0.01 0.41 0.09 99 1008.9
20200709100916 57 92 2.0 4.0 0.01 0.41 0.09 99 1008.9
20200709100016 57 10 1.0 6.0 0.01 0.41 0.09 99 1008.7
20200709095116 58 162 2.0 6.0 0.01 0.41 0.09 99 1008.7
20200709094216 58 120 2.0 8.0 0.02 0.41 0.09 99 1008.7
20200709093316 58 155 3.0 5.0 0.02 0.43 0.09 99 1008.5
20200709092416 58 45 2.0 4.0 0.04 0.43 0.09 99 1008.6
20200709091516 58 87 2.0 3.0 0.04 0.41 0.08 99 1008.5
20200709090618 58 69 2.0 5.0 0.05 0.41 0.08 99 1008.5
20200709085716 57 101 1.0 5.0 0.05 0.41 0.08 99 1008.5
20200709084816 57 105 2.0 4.0 0.04 0.40 0.07 99 1008.5
20200709083919 56 76 2.0 5.0 0.04 0.40 0.07 99 1008.6
20200709083017 56 110 2.0 6.0 0.04 0.40 0.07 99 1008.5
20200709082116 57 132 2.0 5.0 0.02 0.39 0.06 99 1008.4
20200709081216 59 83 4.0 5.0 0.02 0.39 0.05 99 1008.3
20200709080316 61 332 2.0 4.0 0.01 0.38 0.04 98 1008.3
20200709075416 61 288 2.0 4.0 0.01 0.38 0.04 98 1008.0
20200709074516 60 282 1.0 4.0 0.01 0.39 0.04 99 1008.0
20200709073616 60 231 0.0 4.0 0.01 0.39 0.04 99 1007.8
20200709072716 60 286 2.0 4.0 0.02 0.40 0.04 99 1007.7
20200709071816 60 324 0.0 4.0 0.01 0.41 0.02 99 1007.7
20200709070916 60 324 2.0 3.0 0.01 0.43 0.02 99 1007.8
20200709070016 60 263 1.0 2.0 0.01 0.43 0.02 99 1007.8
20200709065117 60 242 1.0 2.0 0.01 0.43 0.02 99 1007.6
20200709064216 60 303 0.0 2.0 0.01 0.43 0.02 99 1007.5
20200709063316 60 344 1.0 2.0 0.00 0.41 0.01 99 1007.4
20200709062416 60 83 0.0 4.0 0.00 0.41 0.01 99 1007.5
20200709061520 59 98 1.0 5.0 0.00 0.41 0.01 99 1007.4
20200709060617 59 128 1.0 3.0 0.00 0.41 0.01 99 1007.2
20200709055717 59 139 1.0 4.0 0.00 0.41 0.01 99 1007.3
20200709054816 59 131 0.0 3.0 0.00 0.41 0.01 99 1007.2
20200709053916 59 144 2.0 5.0 0.00 0.43 0.01 99 1007.2
20200709053016 59 160 0.0 5.0 0.00 0.43 0.01 99 1007.2
20200709052116 59 133 2.0 5.0 0.00 0.43 0.01 99 1007.2
20200709051216 59 133 1.0 5.0 0.00 0.43 0.01 99 1007.4
20200709050316 59 164 2.0 4.0 0.00 0.43 0.01 99 1007.3
20200709045417 59 127 2.0 4.0 0.00 0.43 0.01 99 1007.2
20200709044517 59 44 1.0 3.0 0.00 0.43 0.01 99 1007.3
20200709043616 59 103 2.0 4.0 0.00 0.43 0.01 99 1007.2
20200709042716 59 162 0.0 3.0 0.00 0.43 0.01 99 1007.3
20200709041817 59 70 1.0 4.0 0.00 0.43 0.01 99 1007.2
20200709040916 59 178 0.0 4.0 0.00 0.43 0.01 99 1007.3
20200709035116 59 106 2.0 8.0 0.00 0.43 0.01 99 1007.3
20200709034216 59 206 1.0 8.0 0.00 0.43 0.01 99 1007.2
20200709033317 59 45 1.0 5.0 0.00 0.43 0.01 99 1007.1
20200709032416 59 48 0.0 4.0 0.00 0.43 0.01 99 1007.2
20200709031519 59 118 0.0 5.0 0.00 0.43 0.01 99 1007.2
20200709030617 59 353 1.0 5.0 0.00 0.43 0.01 99 1007.3
20200709025716 59 162 1.0 6.0 0.00 0.43 0.01 99 1007.5
20200709024816 59 132 1.0 4.0 0.00 0.43 0.01 99 1007.5
20200709023916 59 163 2.0 4.0 0.00 0.43 0.01 99 1007.5
20200709023016 59 63 2.0 5.0 0.00 0.43 0.01 99 1007.5
20200709022116 59 167 1.0 4.0 0.00 0.43 0.01 99 1007.6
20200709021216 59 113 0.0 4.0 0.00 0.43 0.01 99 1007.4
20200709020317 59 171 2.0 5.0 0.00 0.43 0.01 99 1007.7
20200709015416 59 100 1.0 4.0 0.00 0.43 0.01 99 1007.6
20200709014516 59 119 0.0 6.0 0.00 0.43 0.01 99 1007.7
20200709013616 59 119 1.0 5.0 0.01 0.43 0.01 99 1007.7
20200709012718 59 119 3.0 5.0 0.01 0.43 0.01 99 1007.8
20200709011816 59 96 2.0 4.0 0.01 0.43 0.01 99 1007.8
20200709010917 59 104 1.0 4.0 0.01 0.43 0.01 99 1007.9
20200709010016 59 133 2.0 4.0 0.01 0.43 0.01 99 1008.0
20200709005116 59 130 1.0 7.0 0.01 0.43 0.01 99 1008.0
20200709004216 59 136 1.0 7.0 0.01 0.43 0.01 99 1008.2
20200709003316 59 146 2.0 4.0 0.00 0.41 0.00 99 1008.3
20200709002416 59 152 2.0 4.0 0.00 0.41 0.00 99 1008.2
20200709001516 59 111 2.0 2.0 0.00 0.41 0.00 99 1008.5
20200709000616 59 122 0.0 5.0 0.00 0.41 0.00 99 1008.5
20200708235716 59 90 2.0 3.0 0.00 0.41 0.00 99 1008.7
20200708234817 59 154 0.0 4.0 0.00 0.41 0.00 99 1008.9